[[{"header":{"parameterUnit":"m.s-1","parameterCategory":1,"la1":30.2991,"la2":30.254,"lo1":-89.0895,"lo2":-89.0444,"dy":0.0017,"dx":0.0017,"nx":28,"ny":28,"refTime":"2025-07-22T03:00:00:Z","depth":0,"parameterNumber":2,"parameterNumberName":"U-component_of_WINDS"},"data":[0,0,0,0,0,0,0,0,0,0,0,0,0,0,0,0,0,0,0,0,0,0,0,0,0,0,0,0,0,0,0,0,0,0,0,0,0,0,0,0,0,0,0,0,0,0,0,0,0,0,0,0,0,0,0,0,0,0,2.2699,2.27,0,2.2744,2.2745,2.2745,2.2666,2.2663,2.2661,2.2658,2.2708,2.2712,2.2716,0,0,0,0,0,0,0,0,0,0,0,0,0,2.255,2.2553,2.2699,2.27,2.27,2.2744,2.2745,2.2745,2.2667,2.2663,2.266,2.2657,2.2707,2.2712,2.2716,0,0,0,0,0,0,0,0,0,0,0,0,0,2.2607,2.2554,2.2699,2.2666,2.2664,2.2744,2.2745,2.2745,2.2667,2.2663,2.2659,2.2655,2.2706,2.2711,2.2717,2.2833,0,0,2.2734,2.2737,0,0,0,0,0,0,0,0,2.2604,2.2613,2.2671,2.2669,2.2666,2.2695,2.271,2.2775,2.2668,2.2666,2.2658,2.2653,2.2708,2.2713,2.273,2.2835,2.2837,2.2735,2.2738,2.2741,2.2743,0,0,0,0,0,0,0,2.26,2.261,2.2717,2.2671,2.2669,2.2651,2.2654,2.2722,2.2709,2.2666,2.266,2.2666,2.2706,2.2725,2.2731,2.2838,2.2735,2.274,2.2743,2.2746,2.3042,2.3047,0,0,0,0,0,0,2.26,2.2608,2.2716,2.2718,2.2624,2.2657,2.2661,2.269,2.2708,2.2707,2.267,2.2663,2.2717,2.2724,2.2732,2.2871,2.2741,2.2746,2.275,2.3038,2.3043,2.3048,0,0,0,0,0,0,2.2597,2.261,2.2714,2.2662,2.2673,2.2664,2.2697,2.2693,2.2712,2.2711,2.2708,2.2692,2.2714,2.2724,2.2809,2.2872,2.2749,2.2754,2.3033,2.304,2.3046,2.3148,0,0,0,0,0,0,2.2593,2.2609,2.2652,2.2663,2.2676,2.2788,2.2701,2.2697,2.2722,2.2713,2.2731,2.273,2.2712,2.28,2.2814,2.2877,2.2759,2.3027,2.3036,2.3044,2.3139,2.3157,2.3173,0,0,0,0,0,2.2588,2.268,2.2655,2.2668,2.2729,2.2792,2.28,2.2776,2.2727,2.2771,2.277,2.2729,2.2862,2.281,2.2825,2.289,2.3023,2.3033,2.3043,2.3132,2.3154,2.3173,0,0,0,0,0,0,2.2678,2.268,2.2653,2.2751,2.2772,2.2778,2.2833,2.28,2.2836,2.2826,2.2796,2.2801,2.2892,2.2899,2.2841,2.3004,2.2935,2.2948,2.2997,2.3018,2.3035,2.3032,2.2763,0,0,0,0,0,2.2709,2.2758,2.2758,2.2844,2.2856,2.2843,2.2869,2.2849,2.287,2.2879,2.2884,2.2908,2.2955,2.2986,2.3029,2.3139,2.3143,2.3192,2.3209,2.3223,2.3236,2.3297,2.3319,2.3081,2.3081,2.3081,0,0,2.2774,2.2781,2.2814,2.2863,2.2876,2.293,2.2851,2.291,2.295,2.2888,2.2969,2.2973,2.2997,2.3096,2.3139,2.3104,2.3302,2.3235,2.3247,2.3252,2.3309,2.3332,2.3352,2.3088,2.3086,2.3085,0,0,2.292,2.293,2.3004,2.3019,2.3041,2.3031,2.3049,2.3061,2.3062,2.3141,2.3097,2.3144,2.3225,2.3245,2.3266,2.3421,2.3385,2.3435,2.3525,2.3585,2.3604,2.3621,2.3679,2.3699,2.3448,2.3448,2.3448,0,2.2999,2.3076,2.3046,2.3109,2.3133,2.3078,2.3154,2.3171,2.3206,2.3225,2.3184,2.3286,2.3298,2.3401,2.3439,2.3457,2.3478,2.3434,2.3603,2.362,2.3635,2.369,2.3711,2.3454,2.3453,2.3453,2.3452,0,2.3173,2.3228,2.3285,2.332,2.3349,2.3419,2.3401,2.3435,2.3413,2.3408,2.3492,2.3504,2.355,2.3572,2.3551,2.3673,2.3651,2.3608,2.3537,2.3664,2.3715,2.3736,2.3463,2.3461,2.3459,2.3457,0,0,2.3379,2.3396,2.3418,2.3434,2.3454,2.3496,2.3564,2.3607,2.3638,2.3664,2.3722,2.3792,2.3752,2.3776,2.3756,2.3808,2.3934,2.3759,2.3759,2.3793,2.4073,2.4107,2.4132,2.3909,2.3913,2.3916,2.4072,0,2.3526,2.3641,2.3617,2.3731,2.3782,2.3731,2.379,2.381,2.3808,2.3852,2.385,2.3901,2.3843,2.3858,2.3907,2.3908,2.399,2.3896,2.3966,2.3968,2.3964,2.4158,2.4195,2.4341,2.4091,2.4094,2.4097,0,2.3714,2.3746,2.3866,2.3879,2.3899,2.3953,2.3992,2.4034,2.4056,2.4051,2.4078,2.4048,2.4118,2.4045,2.4142,2.4078,2.4105,2.411,2.4115,2.4123,2.4042,2.4174,2.4386,2.441,2.4128,2.4125,2.4123,0,2.3855,2.3929,2.401,2.4025,2.4041,2.4081,2.409,2.4107,2.4136,2.417,2.4189,2.4231,2.4255,2.4289,2.4273,2.4221,2.4374,2.4299,2.4374,2.4375,2.4411,2.4409,2.4633,2.4424,2.4423,2.4423,2.4423,0,2.4024,2.41,2.4074,2.4124,2.4208,2.418,2.4264,2.4267,2.4284,2.4335,2.4293,2.4343,2.4317,2.4365,2.4353,2.4437,2.4447,2.4447,2.4443,2.4452,2.4453,2.4471,2.4462,2.4429,2.4427,2.4426,2.4425,0,2.4197,2.4183,2.4268,2.4277,2.4281,2.4342,2.4351,2.4399,2.4393,2.4459,2.4473,2.4465,2.452,2.4506,2.4566,2.4558,2.4664,2.4646,2.4657,2.4653,2.473,2.4724,2.4977,2.5009,2.4776,2.4778,2.478,0,2.4307,2.4364,2.4378,2.4409,2.4421,2.4471,2.45,2.4474,2.4506,2.4536,2.4582,2.4632,2.4672,2.4762,2.4763,2.4809,2.4794,2.4879,2.4801,2.4809,2.4799,2.4797,2.4804,2.4896,2.4899,2.4901,2.4902,0,2.4505,2.4495,2.4537,2.4577,2.4612,2.4642,2.4669,2.4697,2.4674,2.4712,2.4767,2.4798,2.4859,2.4911,2.4954,2.4965,2.4932,2.4927,2.4947,2.4958,2.4963,2.4964,2.4702,2.4922,2.492,2.4918,2.4917,2.4917,2.4652,2.4701,2.4719,2.4767,2.4785,2.4811,2.4857,2.4857,2.4902,2.4949,2.4931,2.4995,2.5017,2.5071,2.5087,2.5138,2.5107,2.5135,2.5143,2.5152,2.5162,2.4953,2.5146,2.5145,2.5145,2.5144,2.5144,0,2.485,2.4858,2.4903,2.4942,2.4981,2.4943,2.4971,2.5007,2.5063,2.5086,2.5125,2.519,2.524,2.5245,2.5293,2.5333,2.5319,2.5347,2.5345,2.5349,2.5187,2.5165,2.5358,2.5358,2.5358,2.5358,2.5358,2.5358,2.4957,2.5039,2.5031,2.5122,2.513,2.5192,2.5211,2.5236,2.5254,2.5328,2.5369,2.5371,2.5388,2.5437,2.5482,2.5482,2.5503,2.5538,2.5533,2.5381,2.536,2.534,2.532,2.5542,2.5542,2.5691,2.5693,2.5694]},{"header":{"parameterUnit":"m.s-1","parameterCategory":1,"la1":30.2991,"la2":30.254,"lo1":-89.0895,"lo2":-89.0444,"dy":0.0017,"dx":0.0017,"nx":28,"ny":28,"refTime":"2025-07-22T03:00:00:Z","depth":0,"parameterNumber":3,"parameterNumberName":"V-component_of_WINDS"},"data":[0,0,0,0,0,0,0,0,0,0,0,0,0,0,0,0,0,0,0,0,0,0,0,0,0,0,0,0,0,0,0,0,0,0,0,0,0,0,0,0,0,0,0,0,0,0,0,0,0,0,0,0,0,0,0,0,0,0,-1.1914,-1.1915,0,-1.1978,-1.1979,-1.198,-1.2,-1.2,-1.2,-1.2,-1.2065,-1.2067,-1.2069,0,0,0,0,0,0,0,0,0,0,0,0,0,-1.1809,-1.181,-1.1914,-1.1915,-1.1915,-1.1978,-1.1979,-1.198,-1.2,-1.2,-1.2,-1.1999,-1.2064,-1.2067,-1.2069,0,0,0,0,0,0,0,0,0,0,0,0,0,-1.1862,-1.1811,-1.1914,-1.1933,-1.1936,-1.1978,-1.1979,-1.198,-1.2001,-1.2,-1.2,-1.1999,-1.2063,-1.2066,-1.2069,-1.2097,0,0,-1.2078,-1.208,0,0,0,0,0,0,0,0,-1.1859,-1.1866,-1.193,-1.1932,-1.1935,-1.1981,-1.1966,-1.2019,-1.2001,-1.1976,-1.2,-1.1999,-1.2037,-1.2042,-1.2055,-1.21,-1.2102,-1.2079,-1.2081,-1.2082,-1.2083,0,0,0,0,0,0,0,-1.1855,-1.1863,-1.1939,-1.193,-1.1934,-1.1939,-1.1946,-1.1976,-1.2008,-1.1978,-1.198,-1.1987,-1.2039,-1.2052,-1.2057,-1.2103,-1.2079,-1.2081,-1.2083,-1.2084,-1.2174,-1.2175,0,0,0,0,0,0,-1.1848,-1.186,-1.1937,-1.1941,-1.1895,-1.1941,-1.1949,-1.1966,-1.2008,-1.2014,-1.1987,-1.1988,-1.2047,-1.2054,-1.2059,-1.2095,-1.2082,-1.2085,-1.2086,-1.2174,-1.2174,-1.2175,0,0,0,0,0,0,-1.1846,-1.1855,-1.1935,-1.1901,-1.1912,-1.1943,-1.1963,-1.1968,-1.1982,-1.2015,-1.2021,-1.1996,-1.2047,-1.2055,-1.2087,-1.2097,-1.2086,-1.2089,-1.2173,-1.2174,-1.2175,-1.2164,0,0,0,0,0,0,-1.1843,-1.1854,-1.1864,-1.1901,-1.1913,-1.1961,-1.1963,-1.197,-1.1987,-1.1988,-1.2024,-1.203,-1.2048,-1.2083,-1.209,-1.2101,-1.2091,-1.2172,-1.2173,-1.2174,-1.2164,-1.2165,-1.2166,0,0,0,0,0,-1.1839,-1.1859,-1.1865,-1.1874,-1.1927,-1.1962,-1.1969,-1.1989,-1.1988,-1.1999,-1.202,-1.2029,-1.2095,-1.2086,-1.2095,-1.2106,-1.2172,-1.2173,-1.2174,-1.2164,-1.2165,-1.2166,0,0,0,0,0,0,-1.1822,-1.1864,-1.1871,-1.1903,-1.1929,-1.1965,-1.198,-1.199,-1.2016,-1.2016,-1.204,-1.2048,-1.2078,-1.2096,-1.2085,-1.2135,-1.2134,-1.2137,-1.2123,-1.2124,-1.2125,-1.212,-1.2094,0,0,0,0,0,-1.1822,-1.1847,-1.1882,-1.1907,-1.192,-1.1948,-1.1963,-1.1977,-1.2004,-1.2015,-1.2039,-1.2065,-1.2092,-1.2109,-1.2135,-1.2167,-1.2175,-1.2179,-1.218,-1.218,-1.2183,-1.2201,-1.2204,-1.2179,-1.2179,-1.2179,0,0,-1.1822,-1.1848,-1.1862,-1.1905,-1.1926,-1.1951,-1.1956,-1.1983,-1.2002,-1.2019,-1.2051,-1.207,-1.21,-1.2133,-1.2148,-1.2148,-1.2192,-1.2182,-1.2182,-1.2184,-1.2203,-1.2205,-1.2207,-1.218,-1.218,-1.218,0,0,-1.1836,-1.1858,-1.1882,-1.1903,-1.1936,-1.1954,-1.196,-1.1995,-1.2008,-1.2041,-1.2055,-1.2078,-1.2123,-1.2145,-1.2161,-1.2184,-1.2193,-1.2192,-1.2196,-1.2214,-1.2216,-1.2217,-1.2226,-1.2228,-1.2194,-1.2194,-1.2194,0,-1.1832,-1.1871,-1.1892,-1.1918,-1.1937,-1.1954,-1.1978,-1.1998,-1.2037,-1.205,-1.2049,-1.2107,-1.2129,-1.2167,-1.2173,-1.2186,-1.2193,-1.2188,-1.2214,-1.2216,-1.2218,-1.2226,-1.2229,-1.2194,-1.2194,-1.2194,-1.2194,0,-1.1864,-1.1891,-1.1906,-1.1944,-1.1964,-1.1989,-1.2015,-1.2033,-1.2045,-1.2063,-1.2097,-1.2124,-1.2156,-1.2166,-1.2178,-1.2206,-1.2205,-1.2209,-1.2208,-1.2219,-1.2228,-1.2231,-1.2194,-1.2194,-1.2194,-1.2194,0,0,-1.1868,-1.1919,-1.1924,-1.1942,-1.198,-1.2001,-1.2026,-1.2059,-1.2074,-1.21,-1.2123,-1.2161,-1.2165,-1.2185,-1.2199,-1.2215,-1.2232,-1.2217,-1.2218,-1.2219,-1.2264,-1.2261,-1.2264,-1.2238,-1.2239,-1.2239,-1.2262,0,-1.1887,-1.1934,-1.1955,-1.1992,-1.2017,-1.2035,-1.2058,-1.2083,-1.2102,-1.2126,-1.2146,-1.2173,-1.2176,-1.2188,-1.2204,-1.2226,-1.2241,-1.2225,-1.2259,-1.226,-1.2251,-1.2269,-1.2265,-1.2285,-1.2265,-1.2266,-1.2266,0,-1.1914,-1.1942,-1.1982,-1.2017,-1.2029,-1.2048,-1.208,-1.2103,-1.2132,-1.2145,-1.2167,-1.2181,-1.2209,-1.2206,-1.2245,-1.2234,-1.2249,-1.2262,-1.2264,-1.2267,-1.2263,-1.2273,-1.2292,-1.2295,-1.2271,-1.2271,-1.2271,0,-1.1913,-1.196,-1.1991,-1.2005,-1.2047,-1.2061,-1.2079,-1.2108,-1.2126,-1.2154,-1.2166,-1.2197,-1.2213,-1.2237,-1.2259,-1.2254,-1.2296,-1.2295,-1.2307,-1.2307,-1.2315,-1.2314,-1.2337,-1.2325,-1.2325,-1.2325,-1.2325,0,-1.1931,-1.1955,-1.1991,-1.2009,-1.2037,-1.2061,-1.2087,-1.2107,-1.2133,-1.2156,-1.2173,-1.2194,-1.2222,-1.2246,-1.2264,-1.2294,-1.2301,-1.2312,-1.2317,-1.2311,-1.2309,-1.2321,-1.232,-1.2325,-1.2325,-1.2325,-1.2325,0,-1.1935,-1.1959,-1.1994,-1.2031,-1.2041,-1.2059,-1.2091,-1.211,-1.213,-1.2158,-1.2166,-1.2197,-1.2227,-1.2252,-1.2291,-1.2303,-1.2334,-1.2339,-1.2324,-1.2326,-1.2337,-1.2336,-1.2368,-1.2374,-1.2358,-1.2358,-1.2358,0,-1.1945,-1.1964,-1.2003,-1.202,-1.2038,-1.2064,-1.2083,-1.2108,-1.2127,-1.2162,-1.2177,-1.2208,-1.2235,-1.2282,-1.2308,-1.2338,-1.2344,-1.2353,-1.2349,-1.2342,-1.2344,-1.2343,-1.2345,-1.2353,-1.2354,-1.2354,-1.2354,0,-1.196,-1.1971,-1.1998,-1.2029,-1.2051,-1.2077,-1.2103,-1.2115,-1.2145,-1.2165,-1.2197,-1.2217,-1.2258,-1.2289,-1.2322,-1.2341,-1.2352,-1.2355,-1.2359,-1.2354,-1.2344,-1.235,-1.2325,-1.2354,-1.2354,-1.2354,-1.2354,-1.2354,-1.1967,-1.1985,-1.2015,-1.2045,-1.2067,-1.2091,-1.2111,-1.2133,-1.2159,-1.2194,-1.2207,-1.2239,-1.2269,-1.2315,-1.2334,-1.236,-1.2361,-1.2367,-1.2369,-1.237,-1.237,-1.234,-1.2366,-1.2366,-1.2366,-1.2366,-1.2366,0,-1.1983,-1.2004,-1.203,-1.2066,-1.209,-1.2099,-1.2128,-1.2147,-1.2175,-1.2202,-1.2228,-1.2264,-1.2295,-1.2323,-1.2355,-1.237,-1.2376,-1.2378,-1.2377,-1.2381,-1.2367,-1.236,-1.2372,-1.2372,-1.2372,-1.2372,-1.2372,-1.2372,-1.1994,-1.2025,-1.204,-1.2082,-1.2103,-1.2135,-1.2151,-1.2173,-1.2195,-1.2235,-1.226,-1.2279,-1.2307,-1.2341,-1.2369,-1.2377,-1.2388,-1.2388,-1.2397,-1.2383,-1.2382,-1.2381,-1.2375,-1.239,-1.239,-1.2409,-1.241,-1.241]}]]